period_start,C,m1,H,J0,J1,J2,J3,J4,J5,JA,JB,JC,JD,JJ,JK,JN,#
2017-05-08 00:04:02,0.06,1.96,0.00,22.68,26.42,30.19,14.52,49.13,1011.75,2033.01,2721.34,2601.44,2955.69,600.02,593.86,52.33,0000 0000 0000 0000 000000
2017-05-08 00:09:04,0.05,1.96,0.00,22.71,26.44,30.29,14.50,49.11,1011.74,2033.00,2720.49,2600.77,2954.81,599.87,593.60,52.38,0000 0000 0000 0000 000000
2017-05-08 00:14:05,0.05,1.97,0.00,22.74,26.46,30.30,14.48,49.10,1011.74,2033.00,2719.53,2600.04,2954.00,600.11,593.89,52.43,0000 0000 0000 0000 000000
2017-05-08 00:19:06,0.06,1.97,0.00,22.78,26.49,30.32,14.59,49.12,1011.75,2033.00,2718.65,2599.40,2953.22,600.19,593.81,52.48,0000 0000 0000 0000 000000
2017-05-08 00:24:08,0.05,1.97,0.00,22.82,26.52,30.33,14.52,49.02,1011.77,2032.98,2717.72,2598.76,2952.54,599.93,593.49,52.53,0000 0000 0000 0000 000000
2017-05-08 00:29:09,0.03,1.98,0.00,23.08,26.55,30.33,14.49,49.07,1011.74,2032.90,2716.93,2598.03,2951.82,599.96,592.94,52.58,0000 0000 0000 0000 000000
2017-05-08 00:34:10,0.02,1.98,0.00,23.16,26.58,30.22,14.48,49.00,1011.77,2032.62,2716.03,2597.31,2950.96,600.05,592.96,52.63,0000 0000 0000 0000 000000
2017-05-08 00:39:11,0.02,1.98,0.00,23.44,26.63,30.25,14.42,49.00,1011.76,2032.20,2715.17,2596.66,2950.09,599.86,592.16,52.68,0000 0000 0000 0000 000000
2017-05-08 00:44:12,0.04,1.98,0.00,23.41,26.67,30.33,14.40,49.02,1011.77,2032.03,2714.18,2595.93,2949.24,599.65,591.94,52.73,0000 0000 0000 0000 000000
2017-05-08 00:49:14,0.06,1.98,0.00,23.16,26.70,30.37,14.50,49.04,1011.75,2032.00,2713.16,2595.08,2948.38,599.73,592.58,52.78,0000 0000 0000 0000 000000
2017-05-08 00:54:15,0.07,1.99,0.00,23.07,26.72,30.46,14.51,49.08,1011.76,2032.00,2712.21,2594.32,2947.54,600.30,593.29,52.84,0000 0000 0000 0000 000000
2017-05-08 00:59:16,0.06,1.99,0.00,23.07,26.74,30.63,14.46,48.92,1011.75,2032.00,2711.17,2593.65,2946.68,599.64,592.69,52.89,0000 0000 0000 0000 000000
2017-05-08 01:04:18,0.09,1.99,0.00,23.12,26.75,30.54,14.50,48.94,1011.75,2031.99,2709.83,2592.61,2945.52,600.11,592.98,52.94,0000 0000 0000 0000 000000
2017-05-08 01:09:19,0.08,2.00,0.00,23.37,26.77,30.49,14.43,48.85,1011.76,2031.98,2708.32,2591.34,2944.17,600.02,592.44,52.99,0000 0000 0000 0000 000000
2017-05-08 01:14:20,0.05,2.00,0.00,23.29,26.80,30.34,14.52,49.17,1011.75,2031.85,2707.03,2590.32,2943.03,600.32,592.95,53.04,0000 0000 0000 0000 000000
2017-05-08 01:19:21,0.07,2.01,0.00,23.54,26.83,30.36,14.29,48.89,1011.75,2031.67,2705.65,2589.25,2941.89,599.67,591.71,53.09,0000 0000 0000 0000 000000
2017-05-08 01:24:22,0.05,2.01,0.00,23.58,26.86,30.38,14.41,48.90,1011.74,2031.31,2704.39,2588.19,2940.68,600.26,592.33,53.14,0000 0000 0000 0000 000000
2017-05-08 01:29:23,0.06,2.01,0.00,23.65,26.88,30.40,14.42,48.96,1011.75,2031.08,2702.90,2587.07,2939.44,599.70,591.56,53.19,0000 0000 0000 0000 000000
2017-05-08 01:34:24,0.07,2.02,0.00,23.64,26.91,30.44,14.45,49.02,1011.77,2031.00,2701.65,2585.99,2938.22,600.48,592.42,53.24,0000 0000 0000 0000 000000
2017-05-08 01:39:26,0.13,2.02,0.00,23.84,26.93,30.47,14.45,48.84,1011.78,2031.00,2699.84,2584.60,2936.64,600.14,591.72,53.29,0000 0000 0000 0000 000000
2017-05-08 01:44:27,0.11,2.03,0.00,23.94,26.96,30.49,14.39,48.85,1011.78,2030.99,2698.07,2583.06,2934.84,599.80,591.12,53.34,0000 0000 0000 0000 000000
2017-05-08 01:49:28,0.10,2.03,0.00,24.02,26.98,30.52,14.30,48.77,1011.78,2030.95,2696.43,2581.63,2933.31,599.67,590.85,53.39,0000 0000 0000 0000 000000
2017-05-08 01:54:29,0.08,2.04,0.00,24.12,27.00,30.54,14.32,48.91,1011.75,2030.93,2695.00,2580.60,2932.09,600.19,591.09,53.44,0000 0000 0000 0000 000000
2017-05-08 01:59:30,0.05,2.04,0.00,24.17,27.02,30.55,14.29,48.89,1011.74,2030.71,2693.64,2579.61,2931.01,600.08,590.94,53.49,0000 0000 0000 0000 000000
2017-05-08 02:04:32,0.07,2.04,0.00,24.08,27.02,30.54,14.32,48.91,1011.74,2030.55,2692.36,2578.69,2929.92,599.74,590.75,53.54,0000 0000 0000 0000 000000
2017-05-08 02:09:33,0.07,2.05,0.00,24.08,27.02,30.56,14.37,48.77,1011.74,2030.43,2690.95,2577.72,2928.79,599.96,591.00,53.59,0000 0000 0000 0000 000000
2017-05-08 02:14:35,0.06,2.05,0.00,24.12,27.04,30.50,14.36,48.83,1011.73,2030.15,2689.53,2576.55,2927.54,600.30,591.12,53.64,0000 0000 0000 0000 000000
2017-05-08 02:19:36,0.07,2.06,0.00,24.16,27.05,30.49,14.35,48.86,1011.73,2030.04,2688.25,2575.62,2926.47,600.05,590.90,53.69,0000 0000 0000 0000 000000
2017-05-08 02:24:37,0.08,2.06,0.00,24.25,27.05,30.52,14.24,48.86,1011.73,2030.03,2686.82,2574.64,2925.29,599.54,590.23,53.74,0000 0000 0000 0000 000000
2017-05-08 02:29:39,0.08,2.06,0.00,24.30,27.06,30.51,14.30,48.85,1011.73,2030.03,2685.47,2573.70,2924.21,599.94,590.65,53.80,0000 0000 0000 0000 000000
2017-05-08 02:34:40,0.11,2.07,0.00,24.32,27.07,30.51,14.30,48.90,1011.74,2030.02,2683.54,2572.52,2922.93,600.01,590.51,53.85,0000 0000 0000 0000 000000
2017-05-08 02:39:41,0.15,2.07,0.00,24.29,27.07,30.50,14.38,48.82,1011.74,2030.02,2681.04,2570.98,2921.21,600.08,590.67,53.90,0000 0000 0000 0000 000000
2017-05-08 02:44:42,0.73,2.10,0.00,24.41,27.07,30.50,14.34,48.92,1011.75,2030.00,2673.29,2563.51,2913.05,599.82,590.12,53.95,0000 0000 0000 0000 000000
2017-05-08 02:49:43,0.90,2.14,0.00,24.41,27.07,30.48,14.28,48.88,1011.77,2030.00,2661.82,2552.10,2900.28,600.06,590.32,54.00,0000 0000 0000 0000 000000
2017-05-08 02:54:45,0.27,2.17,0.00,24.39,27.07,30.44,14.33,48.86,1011.78,2030.00,2656.29,2546.62,2894.08,599.95,590.46,54.05,0000 0000 0000 0000 000000
2017-05-08 02:59:46,0.16,2.18,0.00,24.44,27.07,30.43,14.31,48.84,1011.75,2030.00,2654.02,2544.64,2891.92,600.08,590.45,54.10,0000 0000 0000 0000 000000
2017-05-08 03:04:47,0.09,2.19,0.00,24.43,27.07,30.43,14.39,48.80,1011.74,2030.00,2652.45,2543.44,2890.48,600.11,590.43,54.15,0000 0000 0000 0000 000000
2017-05-08 03:09:48,0.04,2.19,0.00,24.44,27.07,30.45,14.37,48.83,1011.76,2030.00,2651.42,2542.79,2889.77,599.99,590.39,54.20,0000 0000 0000 0000 000000
2017-05-08 03:14:50,0.05,2.19,0.00,24.43,27.06,30.41,14.35,48.86,1011.76,2030.00,2650.63,2542.05,2889.05,600.23,590.48,54.25,0000 0000 0000 0000 000000
2017-05-08 03:19:51,0.01,2.20,0.00,24.43,27.05,30.38,14.32,48.88,1011.77,2030.00,2650.01,2541.97,2888.94,599.96,590.32,54.30,0000 0000 0000 0000 000000
2017-05-08 03:24:52,0.05,2.20,0.00,24.40,27.05,30.37,14.28,48.78,1011.78,2030.00,2649.61,2541.49,2888.25,600.08,590.43,54.35,0000 0000 0000 0000 000000
2017-05-08 03:29:53,0.01,2.20,0.00,24.43,27.05,30.38,14.39,48.88,1011.80,2030.00,2649.01,2541.02,2888.00,599.93,590.28,54.40,0000 0000 0000 0000 000000
2017-05-08 03:34:55,0.03,2.20,0.00,24.48,27.05,30.38,14.40,48.98,1011.85,2030.00,2648.25,2540.97,2887.55,600.18,590.42,54.45,0000 0000 0000 0000 000000
2017-05-08 03:39:56,0.03,2.20,0.00,24.45,27.05,30.36,14.30,48.88,1011.77,2030.00,2648.00,2540.46,2887.03,599.89,590.19,54.50,0000 0000 0000 0000 000000
2017-05-08 03:44:57,0.02,2.20,0.00,24.40,27.05,30.34,14.41,49.08,1011.76,2030.00,2647.42,2540.01,2886.96,600.12,590.57,54.55,0000 0000 0000 0000 000000
2017-05-08 03:49:59,0.01,2.20,0.00,24.50,27.05,30.34,14.32,48.94,1011.74,2030.00,2647.00,2539.97,2886.35,599.96,590.18,54.60,0000 0000 0000 0000 000000
2017-05-08 03:55:00,0.02,2.21,0.00,24.44,27.07,30.34,14.37,49.00,1011.74,2030.00,2646.83,2539.61,2886.01,600.08,590.40,54.65,0000 0000 0000 0000 000000
2017-05-08 04:00:01,0.03,2.21,0.00,24.46,27.07,30.34,14.38,48.88,1011.74,2030.00,2646.07,2539.05,2885.91,600.08,590.15,54.71,0000 0000 0000 0000 000000
2017-05-08 04:05:03,0.03,2.21,0.00,24.39,27.07,30.33,14.45,49.05,1011.74,2029.99,2645.49,2538.97,2885.10,600.36,590.68,54.76,0000 0000 0000 0000 000000
2017-05-08 04:10:04,0.03,2.21,0.00,24.47,27.07,30.34,14.29,49.03,1011.75,2029.99,2644.98,2538.20,2884.97,600.15,590.39,54.81,0000 0000 0000 0000 000000
2017-05-08 04:15:05,0.04,2.21,0.00,24.49,27.07,30.35,14.29,48.98,1011.76,2029.99,2644.21,2538.00,2884.29,600.14,590.21,54.86,0000 0000 0000 0000 000000
2017-05-08 04:20:06,0.04,2.21,0.00,24.43,27.07,30.35,14.32,49.02,1011.76,2029.99,2643.66,2537.53,2883.98,599.77,590.11,54.91,0000 0000 0000 0000 000000
2017-05-08 04:25:08,0.03,2.22,0.00,24.37,27.07,30.36,14.29,49.09,1011.79,2029.99,2643.03,2537.02,2883.34,599.68,590.18,54.96,0000 0000 0000 0000 000000
2017-05-08 04:30:09,0.03,2.22,0.00,24.37,27.09,30.31,14.27,49.04,1011.76,2029.99,2642.44,2536.83,2882.96,599.88,590.38,55.01,0000 0000 0000 0000 000000
2017-05-08 04:35:10,0.05,2.22,0.00,24.39,27.10,30.30,14.25,49.03,1011.75,2029.99,2641.85,2536.08,2882.20,600.21,590.67,55.06,0000 0000 0000 0000 000000
2017-05-08 04:40:12,0.01,2.22,0.00,24.43,27.10,30.32,14.34,49.10,1011.74,2029.99,2641.06,2535.96,2881.96,599.79,590.13,55.11,0000 0000 0000 0000 000000
2017-05-08 04:45:13,0.07,2.23,0.00,24.40,27.10,30.36,14.39,49.18,1011.74,2029.98,2640.29,2535.17,2881.15,600.43,590.87,55.16,0000 0000 0000 0000 000000
2017-05-08 04:50:14,0.01,2.23,0.00,24.33,27.10,30.35,14.30,49.04,1011.74,2029.99,2639.81,2534.97,2880.92,599.86,590.30,55.21,0000 0000 0000 0000 000000
2017-05-08 04:55:15,0.06,2.23,0.00,24.39,27.10,30.35,14.28,49.05,1011.73,2029.99,2639.05,2534.32,2880.14,599.94,590.47,55.26,0000 0000 0000 0000 000000
2017-05-08 05:00:17,0.03,2.23,0.00,24.40,27.10,30.35,14.33,49.08,1011.74,2029.98,2638.39,2533.99,2879.81,599.98,590.37,55.31,0000 0000 0000 0000 000000
2017-05-08 05:05:18,0.05,2.23,0.00,24.26,27.10,30.36,14.36,49.10,1011.74,2029.96,2637.63,2533.41,2879.05,600.02,590.70,55.36,0000 0000 0000 0000 000000
2017-05-08 05:10:19,0.01,2.24,0.00,24.32,27.10,30.36,14.29,49.10,1011.74,2029.96,2637.02,2533.01,2878.97,599.93,590.52,55.41,0000 0000 0000 0000 000000
2017-05-08 05:15:20,0.03,2.24,0.00,24.32,27.10,30.34,14.40,49.07,1011.74,2029.96,2636.66,2532.89,2878.41,599.88,590.43,55.46,0000 0000 0000 0000 000000
2017-05-08 05:20:22,0.03,2.24,0.00,24.28,27.10,30.36,14.32,49.21,1011.73,2029.94,2636.01,2532.15,2878.00,600.01,590.57,55.51,0000 0000 0000 0000 000000
2017-05-08 05:25:23,0.03,2.24,0.00,24.31,27.10,30.37,14.33,49.07,1011.74,2029.89,2635.32,2531.99,2877.48,599.93,590.48,55.57,0000 0000 0000 0000 000000
2017-05-08 05:30:24,0.01,2.24,0.00,24.26,27.10,30.35,14.30,49.04,1011.74,2029.95,2634.99,2531.80,2877.02,599.87,590.44,55.62,0000 0000 0000 0000 000000
2017-05-08 05:35:26,0.03,2.24,0.00,24.26,27.10,30.36,14.44,49.13,1011.74,2029.89,2634.35,2531.10,2876.93,600.19,590.85,55.67,0000 0000 0000 0000 000000
2017-05-08 05:40:27,0.02,2.25,0.00,24.21,27.10,30.31,14.31,49.04,1011.74,2029.90,2633.94,2530.99,2876.18,599.91,590.72,55.72,0000 0000 0000 0000 000000
2017-05-08 05:45:28,0.03,2.25,0.00,24.26,27.08,30.32,14.38,49.11,1011.74,2029.94,2633.22,2530.81,2876.00,599.82,590.50,55.77,0000 0000 0000 0000 000000
2017-05-08 05:50:29,0.02,2.25,0.00,24.24,27.07,30.32,14.38,49.17,1011.74,2029.92,2632.98,2530.11,2875.83,599.98,590.71,55.82,0000 0000 0000 0000 000000
2017-05-08 05:55:31,0.02,2.25,0.00,24.40,27.07,30.34,14.35,49.03,1011.73,2029.82,2632.40,2529.99,2875.08,600.17,590.56,55.87,0000 0000 0000 0000 000000
2017-05-08 06:00:32,0.02,2.25,0.00,24.59,27.07,30.26,14.37,48.89,1011.73,2029.93,2632.01,2529.98,2875.00,600.14,590.03,55.92,0000 0000 0000 0000 000000
2017-05-08 06:05:34,0.03,2.25,0.00,24.61,27.06,30.28,14.26,48.85,1011.73,2029.96,2631.71,2529.67,2874.90,599.73,589.70,55.97,0000 0000 0000 0000 000000
2017-05-08 06:10:35,0.04,2.25,0.00,24.62,27.05,30.35,14.28,48.85,1011.73,2029.96,2631.03,2529.04,2874.13,599.75,589.75,56.02,0000 0000 0000 0000 000000
2017-05-08 06:15:36,0.01,2.25,0.00,24.35,27.03,30.37,14.29,49.08,1011.73,2029.98,2630.72,2529.00,2874.00,599.41,589.88,56.07,0000 0000 0000 0000 000000
2017-05-08 06:20:37,0.01,2.26,0.00,23.78,27.02,30.30,14.44,49.27,1011.73,2029.98,2630.05,2528.98,2873.99,600.02,591.62,56.12,0000 0000 0000 0000 000000
2017-05-08 06:25:39,0.04,2.26,0.00,23.53,27.00,30.24,14.42,49.08,1011.74,2029.98,2629.87,2528.54,2873.56,599.97,592.15,56.17,0000 0000 0000 0000 000000
2017-05-08 06:30:40,0.03,2.26,0.00,23.36,26.97,30.22,14.47,49.16,1011.73,2029.99,2629.09,2528.05,2873.02,599.87,592.28,56.22,0000 0000 0000 0000 000000
2017-05-08 06:35:41,0.00,2.26,0.00,23.26,26.96,30.15,14.43,49.20,1011.73,2029.99,2628.87,2528.00,2872.99,599.96,592.61,56.27,0000 0000 0000 0000 000000
2017-05-08 06:40:43,0.03,2.26,0.00,23.19,26.95,30.40,14.45,49.25,1011.73,2029.99,2628.08,2527.97,2872.65,599.70,592.49,56.32,0000 0000 0000 0000 000000
2017-05-08 06:45:44,0.02,2.26,0.00,23.12,26.92,30.31,14.49,49.23,1011.73,2029.99,2627.96,2527.67,2872.07,600.41,593.33,56.37,0000 0000 0000 0000 000000
2017-05-08 06:50:45,0.03,2.26,0.00,23.07,26.90,30.18,14.58,49.23,1011.73,2029.99,2627.36,2527.18,2872.00,600.14,593.18,56.42,0000 0000 0000 0000 000000
2017-05-08 06:55:47,0.01,2.26,0.00,23.00,26.87,30.19,14.46,49.27,1011.73,2030.01,2627.01,2527.01,2871.99,600.07,593.18,56.47,0000 0000 0000 0000 000000
2017-05-08 07:00:48,0.00,2.27,0.00,22.93,26.85,30.25,14.51,49.22,1011.73,2030.03,2626.90,2527.00,2871.96,599.94,593.13,56.53,0000 0000 0000 0000 000000
2017-05-08 07:05:49,0.04,2.27,0.00,22.83,26.82,30.31,14.39,49.31,1011.73,2030.18,2626.22,2526.98,2871.68,600.11,593.68,56.58,0000 0000 0000 0000 000000
2017-05-08 07:10:51,0.06,2.27,0.00,22.72,26.79,30.35,14.51,49.18,1011.73,2030.71,2626.00,2526.96,2871.18,600.01,593.69,56.63,0000 0000 0000 0000 000000
2017-05-08 07:15:52,0.04,2.27,0.00,22.65,26.76,30.31,14.53,49.35,1011.73,2030.94,2625.72,2526.62,2871.01,600.41,594.27,56.68,0000 0000 0000 0000 000000
2017-05-08 07:20:53,0.02,2.27,0.00,22.54,26.73,30.33,14.51,49.30,1011.73,2030.98,2625.05,2526.07,2870.99,599.97,594.04,56.73,0000 0000 0000 0000 000000
2017-05-08 07:25:55,0.00,2.27,0.00,22.49,26.70,30.36,14.47,49.31,1011.73,2030.98,2624.96,2526.01,2870.96,599.86,593.98,56.78,0000 0000 0000 0000 000000
2017-05-08 07:30:56,0.02,2.28,0.00,22.49,26.66,30.23,14.52,49.26,1011.73,2031.00,2624.36,2526.00,2870.70,599.78,593.98,56.83,0000 0000 0000 0000 000000
2017-05-08 07:35:58,0.01,2.28,0.00,22.53,26.63,30.13,14.44,48.95,1011.73,2031.04,2624.01,2526.00,2870.36,599.66,593.81,56.88,0000 0000 0000 0000 000000
2017-05-08 07:40:59,0.03,2.28,0.00,22.60,26.60,30.06,14.55,49.06,1011.73,2031.25,2623.79,2525.99,2870.05,600.27,594.02,56.93,0000 0000 0000 0000 000000
2017-05-08 07:46:00,0.06,2.28,0.00,22.67,26.57,29.88,14.45,48.87,1011.69,2031.59,2623.04,2525.89,2869.99,599.51,593.41,56.98,0000 0000 0000 0000 000000
2017-05-08 07:51:01,0.04,2.28,0.00,22.73,26.55,29.76,14.42,49.04,1011.68,2031.91,2623.00,2525.51,2869.92,599.92,593.60,57.03,0000 0000 0000 0000 000000
2017-05-08 07:56:03,0.04,2.29,0.00,22.81,26.53,29.63,14.41,48.90,1011.69,2031.98,2622.41,2525.03,2869.25,599.94,593.48,57.08,0000 0000 0000 0000 000000
2017-05-08 08:01:04,0.00,2.29,0.00,22.90,26.52,29.62,14.42,49.05,1011.69,2031.99,2622.02,2525.00,2869.01,599.76,593.06,57.13,0000 0000 0000 0000 000000
2017-05-08 08:06:06,0.02,2.29,0.00,22.97,26.51,29.69,14.44,48.88,1011.72,2031.99,2621.53,2524.94,2868.90,599.95,593.19,57.18,0000 0000 0000 0000 000000
2017-05-08 08:11:07,0.04,2.29,0.00,23.03,26.50,29.93,14.50,49.01,1011.73,2031.99,2621.01,2524.46,2868.25,599.98,593.09,57.23,0000 0000 0000 0000 000000
2017-05-08 08:16:08,0.02,2.29,0.00,23.11,26.51,30.17,14.45,49.16,1011.73,2031.99,2620.56,2524.01,2867.99,600.07,592.91,57.28,0000 0000 0000 0000 000000
2017-05-08 08:21:09,0.01,2.29,0.00,23.19,26.52,30.25,14.46,49.08,1011.73,2031.99,2620.01,2523.99,2867.70,599.73,592.57,57.33,0000 0000 0000 0000 000000
2017-05-08 08:26:10,0.05,2.29,0.00,23.50,26.53,30.12,14.37,48.80,1011.73,2031.99,2619.52,2523.44,2867.02,599.62,591.85,57.39,0000 0000 0000 0000 000000
2017-05-08 08:31:12,0.02,2.30,0.00,23.50,26.56,30.05,14.35,49.00,1011.73,2031.99,2618.96,2523.01,2866.64,599.96,592.09,57.44,0000 0000 0000 0000 000000
2017-05-08 08:36:13,0.04,2.30,0.00,23.70,26.59,30.12,14.34,48.83,1011.73,2031.98,2618.14,2522.72,2866.02,599.90,591.69,57.49,0000 0000 0000 0000 000000
2017-05-08 08:41:14,0.04,2.30,0.00,23.89,26.62,30.19,14.41,48.84,1011.73,2031.94,2617.78,2522.04,2865.59,599.91,591.35,57.54,0000 0000 0000 0000 000000
2017-05-08 08:46:16,0.00,2.30,0.00,24.04,26.66,30.25,14.37,48.83,1011.73,2031.73,2617.03,2521.84,2865.01,600.10,591.19,57.59,0000 0000 0000 0000 000000
2017-05-08 08:51:17,0.01,2.30,0.00,24.14,26.69,30.28,14.35,48.76,1011.73,2031.31,2616.35,2521.11,2864.41,600.04,590.95,57.64,0000 0000 0000 0000 000000
2017-05-08 08:56:18,-0.00,2.30,0.00,24.18,26.72,30.29,14.49,48.76,1011.74,2031.11,2615.84,2520.98,2863.99,600.26,590.98,57.69,0000 0000 0000 0000 000000
2017-05-08 09:01:20,0.06,2.30,0.00,24.19,26.75,30.31,14.36,48.83,1011.73,2031.03,2615.04,2520.38,2863.36,599.84,590.68,57.74,0000 0000 0000 0000 000000
2017-05-08 09:06:21,0.02,2.31,0.00,24.16,26.76,30.34,14.35,48.79,1011.73,2031.01,2614.38,2520.00,2862.98,599.95,590.80,57.79,0000 0000 0000 0000 000000
2017-05-08 09:11:22,0.05,2.31,0.00,23.97,26.77,30.38,14.42,48.90,1011.73,2031.00,2613.75,2519.67,2862.23,600.11,591.33,57.84,0000 0000 0000 0000 000000
2017-05-08 09:16:24,0.03,2.31,0.00,24.04,26.79,30.38,14.44,48.85,1011.73,2031.00,2613.03,2519.03,2861.88,600.12,591.20,57.89,0000 0000 0000 0000 000000
2017-05-08 09:21:25,0.04,2.31,0.00,23.98,26.80,30.36,14.42,48.94,1011.73,2031.00,2612.28,2518.87,2861.12,599.88,591.17,57.94,0000 0000 0000 0000 000000
2017-05-08 09:26:26,0.04,2.31,0.00,24.11,26.81,30.35,14.34,48.88,1011.73,2030.98,2611.81,2518.07,2860.71,600.17,591.14,57.99,0000 0000 0000 0000 000000
2017-05-08 09:31:27,0.02,2.32,0.00,24.23,26.82,30.37,14.43,48.91,1011.73,2030.98,2611.04,2517.96,2860.04,600.23,591.00,58.04,0000 0000 0000 0000 000000
2017-05-08 09:36:28,0.05,2.32,0.00,24.24,26.82,30.38,14.40,48.85,1011.75,2030.96,2610.46,2517.30,2859.84,600.02,590.61,58.09,0000 0000 0000 0000 000000
2017-05-08 09:41:30,0.02,2.32,0.00,24.24,26.84,30.39,14.42,48.83,1011.77,2030.95,2609.95,2517.00,2859.09,599.85,590.50,58.14,0000 0000 0000 0000 000000
2017-05-08 09:46:31,0.03,2.32,0.00,24.26,26.85,30.39,14.34,48.85,1011.76,2030.96,2609.16,2516.87,2858.85,599.87,590.54,58.19,0000 0000 0000 0000 000000
2017-05-08 09:51:32,0.05,2.32,0.00,24.28,26.85,30.38,14.31,48.85,1011.76,2030.93,2608.66,2516.10,2858.08,599.64,590.27,58.24,0000 0000 0000 0000 000000
2017-05-08 09:56:33,0.01,2.33,0.00,24.28,26.85,30.36,14.45,48.93,1011.75,2030.97,2608.02,2516.00,2858.00,600.37,590.79,58.30,0000 0000 0000 0000 000000
2017-05-08 10:01:34,0.03,2.33,0.00,24.31,26.85,30.37,14.40,48.96,1011.75,2030.95,2607.55,2515.94,2857.49,600.08,590.66,58.35,0000 0000 0000 0000 000000
2017-05-08 10:06:36,0.04,2.33,0.00,24.34,26.85,30.40,14.38,48.85,1011.77,2030.96,2607.00,2515.24,2857.01,600.20,590.72,58.40,0000 0000 0000 0000 000000
2017-05-08 10:11:37,0.02,2.33,0.00,24.33,26.85,30.39,14.32,48.92,1011.77,2030.98,2606.34,2515.00,2856.78,599.92,590.43,58.45,0000 0000 0000 0000 000000
2017-05-08 10:16:38,0.02,2.33,0.00,24.35,26.85,30.39,14.26,48.82,1011.76,2030.98,2605.97,2514.96,2856.09,599.81,590.23,58.50,0000 0000 0000 0000 000000
2017-05-08 10:21:39,0.04,2.33,0.00,24.35,26.84,30.36,14.32,48.88,1011.75,2030.99,2605.26,2514.39,2855.99,600.12,590.60,58.55,0000 0000 0000 0000 000000
2017-05-08 10:26:40,0.02,2.33,0.00,24.32,26.82,30.34,14.28,48.80,1011.75,2030.98,2604.93,2514.01,2855.50,600.03,590.58,58.60,0000 0000 0000 0000 000000
2017-05-08 10:31:42,0.02,2.34,0.00,24.35,26.82,30.31,14.40,48.89,1011.81,2030.98,2604.17,2513.99,2855.01,600.02,590.54,58.65,0000 0000 0000 0000 000000
2017-05-08 10:36:43,0.01,2.34,0.00,24.34,26.82,30.29,14.37,48.83,1011.90,2030.97,2603.96,2513.68,2854.96,599.93,590.50,58.70,0000 0000 0000 0000 000000
2017-05-08 10:41:44,0.06,2.34,0.00,24.32,26.80,30.27,14.30,48.83,1011.81,2030.99,2603.22,2513.11,2854.40,599.84,590.38,58.75,0000 0000 0000 0000 000000
2017-05-08 10:46:45,0.01,2.34,0.00,24.35,26.80,30.27,14.34,48.77,1011.76,2030.99,2602.81,2513.00,2854.01,599.88,590.38,58.80,0000 0000 0000 0000 000000
2017-05-08 10:51:47,0.04,2.34,0.00,24.31,26.80,30.27,14.43,48.88,1011.77,2030.99,2602.05,2512.79,2853.54,600.07,590.66,58.85,0000 0000 0000 0000 000000
2017-05-08 10:56:48,0.04,2.34,0.00,24.33,26.77,30.28,14.32,48.81,1011.76,2030.99,2601.71,2512.16,2853.03,600.02,590.50,58.90,0000 0000 0000 0000 000000
2017-05-08 11:01:50,0.01,2.35,0.00,24.33,26.77,30.26,14.39,48.88,1011.74,2030.99,2601.04,2512.01,2853.00,600.28,590.71,58.95,0000 0000 0000 0000 000000
2017-05-08 11:06:51,0.02,2.35,0.00,24.33,26.77,30.25,14.20,48.80,1011.73,2030.99,2600.71,2511.99,2852.59,599.84,590.36,59.00,0000 0000 0000 0000 000000
2017-05-08 11:11:53,0.03,2.35,0.00,24.32,26.76,30.23,14.42,48.92,1011.73,2030.99,2600.03,2511.72,2852.02,600.40,590.99,59.05,0000 0000 0000 0000 000000
2017-05-08 11:16:54,0.03,2.35,0.00,24.34,26.75,30.22,14.40,48.94,1011.73,2031.00,2599.64,2511.07,2851.92,600.44,590.68,59.10,0000 0000 0000 0000 000000
2017-05-08 11:21:56,0.02,2.35,0.00,24.35,26.75,30.22,14.34,48.79,1011.73,2031.01,2599.03,2510.99,2851.24,599.93,590.41,59.15,0000 0000 0000 0000 000000
2017-05-08 11:26:57,0.02,2.35,0.00,24.30,26.74,30.19,14.43,48.98,1011.75,2031.01,2598.56,2510.86,2851.00,600.45,590.97,59.21,0000 0000 0000 0000 000000
2017-05-08 11:31:58,0.04,2.36,0.00,24.32,26.72,30.19,14.36,48.84,1011.74,2031.00,2598.01,2510.12,2850.67,600.01,590.57,59.26,0000 0000 0000 0000 000000
2017-05-08 11:37:00,0.02,2.36,0.00,24.30,26.72,30.18,14.35,48.84,1011.74,2031.01,2597.52,2510.00,2850.04,599.98,590.56,59.31,0000 0000 0000 0000 000000
2017-05-08 11:42:01,0.00,2.36,0.00,24.28,26.72,30.17,14.34,48.82,1011.73,2031.02,2597.00,2509.97,2849.99,600.01,590.68,59.36,0000 0000 0000 0000 000000
2017-05-08 11:47:02,0.06,2.36,0.00,24.28,26.70,30.17,14.43,48.93,1011.73,2031.01,2596.35,2509.36,2849.35,600.54,591.15,59.41,0000 0000 0000 0000 000000
2017-05-08 11:52:04,0.01,2.36,0.00,24.23,26.70,30.16,14.40,48.86,1011.73,2031.03,2595.99,2509.01,2849.00,600.06,590.77,59.46,0000 0000 0000 0000 000000
2017-05-08 11:57:05,0.02,2.36,0.00,24.24,26.70,30.15,14.29,48.83,1011.73,2031.03,2595.34,2509.00,2848.90,600.03,590.69,59.51,0000 0000 0000 0000 000000
2017-05-08 12:02:06,0.04,2.36,0.00,24.27,26.70,30.16,14.43,48.93,1011.73,2031.05,2594.96,2508.62,2848.12,600.46,591.10,59.56,0000 0000 0000 0000 000000
2017-05-08 12:07:07,0.03,2.37,0.00,24.26,26.69,30.16,14.37,48.86,1011.73,2031.06,2594.20,2508.05,2847.98,599.89,590.54,59.61,0000 0000 0000 0000 000000
2017-05-08 12:12:08,0.03,2.37,0.00,24.26,26.68,30.15,14.39,48.88,1011.73,2031.06,2593.83,2507.99,2847.44,599.96,590.74,59.66,0000 0000 0000 0000 000000
2017-05-08 12:17:09,0.03,2.37,0.00,24.24,26.67,30.15,14.37,48.92,1011.73,2031.06,2593.08,2507.68,2847.00,600.11,590.88,59.71,0000 0000 0000 0000 000000
2017-05-08 12:22:11,0.04,2.37,0.00,24.15,26.67,30.15,14.39,48.88,1011.73,2031.13,2592.74,2507.06,2846.76,600.29,591.15,59.76,0000 0000 0000 0000 000000
2017-05-08 12:27:12,0.02,2.37,0.00,23.95,26.67,30.16,14.40,48.83,1011.73,2031.14,2592.01,2506.99,2846.05,599.96,591.26,59.81,0000 0000 0000 0000 000000
2017-05-08 12:32:13,0.05,2.37,0.00,23.96,26.66,30.16,14.44,48.75,1011.73,2031.18,2591.27,2506.73,2845.96,600.05,591.23,59.86,0000 0000 0000 0000 000000
2017-05-08 12:37:15,0.02,2.38,0.00,23.95,26.66,30.11,14.34,48.83,1011.72,2031.11,2590.88,2506.08,2845.23,600.18,591.45,59.91,0000 0000 0000 0000 000000
2017-05-08 12:42:16,0.02,2.38,0.00,24.05,26.66,30.12,14.37,48.88,1011.72,2031.06,2590.08,2505.98,2844.99,600.13,591.19,59.96,0000 0000 0000 0000 000000
2017-05-08 12:47:17,0.04,2.38,0.00,24.09,26.66,30.14,14.26,48.88,1011.70,2031.16,2589.91,2505.75,2844.38,599.84,590.73,60.01,0000 0000 0000 0000 000000
2017-05-08 12:52:18,0.04,2.38,0.00,24.13,26.67,30.16,14.40,49.01,1011.72,2031.18,2589.11,2505.11,2844.02,600.17,590.91,60.07,0000 0000 0000 0000 000000
2017-05-08 12:57:20,0.02,2.38,0.00,23.89,26.67,30.16,14.29,48.85,1011.73,2031.11,2588.68,2504.99,2843.85,599.99,591.37,60.12,0000 0000 0000 0000 000000